Weather History for Davenport, IA

Change the Weather History Date:

Monday, May 27, 2013

  Actual Average Record
Temperature  
Mean Temperature 64 °F 65 °F  
Max Temperature 71 °F 76 °F 94 °F (2012)
Min Temperature 56 °F 54 °F 41 °F (2011)
Degree Days  
Heating Degree Days 1 3  
Month to date heating degree days 159 172  
Since 1 July heating degree days 6543 6476  
Cooling Degree Days 0 3  
Month to date cooling degree days 58 43  
Year to date cooling degree days 68 49  
Growing Degree Days 12 (Base 50)    
Moisture  
Dew Point 60 °F    
Average Humidity 88    
Maximum Humidity 97    
Minimum Humidity 78    
Precipitation  
Precipitation 1.49 in 0.13 in 1.49 in (2013)
Month to date precipitation 7.34 3.72  
Year to date precipitation 19.79 12.28  
Snow  
Snow 0.00 in - - ()
Month to date snowfall T  
Since 1 July snowfall 27.1  
Snow Depth 0.00 in    
Sea Level Pressure  
Sea Level Pressure 29.91 in    
Wind  
Wind Speed 10 mph (ESE)    
Max Wind Speed 22 mph    
Max Gust Speed 25 mph    
Visibility 3 miles    
Events Rain , Thunderstorm    
T = Trace of Precipitation, MM = Missing Value Source: NWS Daily Summary

Daily Weather History Graph

Daily Weather History Graph

Search for Another Location

Airport:

Trip Planner

Search our weather history database for the weather conditions in past years. The results will help you decide how hot, cold, wet, or windy it might be!

Date:

Astronomy

May. 27, 2013 Rise Set
Actual Time 5:33 AM CDT 8:26 PM CDT
Civil Twilight 5:00 AM CDT 8:59 PM CDT
Nautical Twilight 4:18 AM CDT 9:41 PM CDT
Astronomical Twilight 3:30 AM CDT 10:29 PM CDT
Moon 11:04 PM CDT (5/27) 8:11 AM CDT (5/27)
Length of Visible Light 15h 59m
Length of Day
14h 53m
Waning Gibbous, 91% of the Moon is Illuminated
May 27
Waning Gibbous
May 31
Last Quarter
Jun 8
New
Jun 16
First Quarter
Jun 23
Full

Hourly Weather History & Observations

Time (CDT) Temp. Dew Point Humidity Pressure Visibility Wind Dir Wind Speed Gust Speed Precip Events Conditions
12:52 AM 57.0 °F 55.0 °F 93% 30.04 in 3.0 mi East 10.4 mph - N/A   Overcast
1:02 AM 57.2 °F 55.4 °F 94% 30.04 in 2.5 mi ENE 11.5 mph - N/A   Overcast
1:26 AM 55.4 °F 55.4 °F 100% 30.05 in 1.8 mi East 11.5 mph - 0.05 in Rain , Thunderstorm Thunderstorms and Rain
1:52 AM 57.0 °F 55.0 °F 93% 30.01 in 1.0 mi ESE 17.3 mph 25.3 mph 0.30 in Rain , Thunderstorm Heavy Thunderstorms and Rain
2:19 AM 57.2 °F 55.4 °F 94% 30.03 in 0.8 mi SE 8.1 mph - 0.47 in Rain , Thunderstorm Heavy Thunderstorms and Rain
2:26 AM 57.2 °F 55.4 °F 94% 30.02 in 0.8 mi ESE 16.1 mph - 0.66 in Rain Heavy Rain
2:37 AM 57.2 °F 55.4 °F 94% 30.00 in 0.8 mi ESE 17.3 mph - 0.93 in Rain , Thunderstorm Heavy Thunderstorms and Rain
2:52 AM 57.0 °F 55.9 °F 96% 29.99 in 2.5 mi East 11.5 mph 20.7 mph 0.98 in Rain , Thunderstorm Light Rain
3:03 AM 57.2 °F 55.4 °F 94% 29.99 in 2.5 mi ESE 10.4 mph - 0.02 in Rain Rain
3:11 AM 57.2 °F 55.4 °F 94% 30.02 in 2.5 mi ESE 8.1 mph - 0.03 in Rain Light Rain
3:40 AM 57.2 °F 55.4 °F 94% 29.97 in 1.8 mi SE 21.9 mph - 0.13 in Rain Rain
3:52 AM 57.9 °F 57.0 °F 97% 30.01 in 2.5 mi Variable 6.9 mph - 0.17 in Rain Light Rain
4:00 AM 57.2 °F 55.4 °F 94% 29.99 in 4.0 mi NNE 8.1 mph - 0.00 in Rain Light Rain
4:52 AM 57.9 °F 55.9 °F 93% 29.97 in 5.0 mi East 8.1 mph - 0.01 in   Overcast
5:52 AM 57.9 °F 55.9 °F 93% 29.97 in 2.5 mi East 9.2 mph - N/A   Overcast
6:52 AM 59.0 °F 57.0 °F 93% 29.99 in 2.0 mi East 9.2 mph - N/A   Overcast
7:52 AM 59.0 °F 57.0 °F 93% 30.00 in 2.0 mi SE 8.1 mph - N/A   Overcast
8:08 AM 59.0 °F 57.2 °F 94% 30.00 in 1.8 mi ESE 9.2 mph - N/A   Overcast
8:52 AM 60.1 °F 57.9 °F 93% 29.98 in 1.2 mi ESE 8.1 mph - N/A   Overcast
9:10 AM 60.8 °F 57.2 °F 88% 29.97 in 1.5 mi ESE 8.1 mph - N/A   Overcast
9:52 AM 60.1 °F 59.0 °F 96% 29.93 in 1.5 mi SE 10.4 mph - N/A   Overcast
10:52 AM 62.1 °F 59.0 °F 90% 29.92 in 2.0 mi ESE 10.4 mph - N/A   Overcast
11:04 AM 62.6 °F 59.0 °F 88% 29.94 in 2.0 mi SE 9.2 mph - N/A   Overcast
11:17 AM 62.6 °F 60.8 °F 94% 29.94 in 1.8 mi SE 10.4 mph - N/A   Overcast
11:27 AM 62.6 °F 60.8 °F 94% 29.93 in 2.0 mi SE 9.2 mph - N/A   Overcast
11:52 AM 63.0 °F 60.1 °F 90% 29.94 in 2.5 mi SE 11.5 mph - N/A   Overcast
12:11 PM 64.4 °F 60.8 °F 88% 29.93 in 3.0 mi ESE 10.4 mph - N/A   Overcast
12:52 PM 64.9 °F 62.1 °F 90% 29.93 in 4.0 mi SE 11.5 mph - N/A   Overcast
1:52 PM 66.0 °F 63.0 °F 90% 29.89 in 6.0 mi SE 11.5 mph - N/A   Overcast
2:22 PM 66.2 °F 64.4 °F 94% 29.86 in 4.0 mi East 15.0 mph - 0.00 in   Overcast
2:45 PM 68.0 °F 64.4 °F 88% 29.86 in 5.0 mi ESE 13.8 mph 20.7 mph 0.00 in Rain Light Rain
2:52 PM 68.0 °F 64.0 °F 87% 29.85 in 4.0 mi ESE 16.1 mph 20.7 mph 0.00 in   Overcast
3:34 PM 66.2 °F 62.6 °F 88% 29.83 in 4.0 mi ESE 17.3 mph - N/A   Overcast
3:52 PM 66.9 °F 63.0 °F 87% 29.82 in 4.0 mi ESE 16.1 mph - N/A   Overcast
4:35 PM 69.8 °F 62.6 °F 78% 29.81 in 6.0 mi ESE 13.8 mph - N/A   Haze
4:52 PM 69.1 °F 63.0 °F 81% 29.81 in 6.0 mi ESE 15.0 mph 21.9 mph N/A   Haze
5:52 PM 70.0 °F 63.0 °F 78% 29.80 in 7.0 mi ESE 12.7 mph - N/A   Mostly Cloudy
6:24 PM 69.8 °F 64.4 °F 83% 29.80 in 7.0 mi ESE 12.7 mph - N/A   Scattered Clouds
6:52 PM 70.0 °F 63.0 °F 78% 29.79 in 6.0 mi ESE 11.5 mph - N/A   Haze
6:59 PM 69.8 °F 62.6 °F 78% 29.80 in 6.0 mi ESE 10.4 mph - N/A   Haze
7:52 PM 68.0 °F 63.0 °F 84% 29.81 in 5.0 mi ESE 9.2 mph - N/A   Haze
8:09 PM 68.0 °F 62.6 °F 83% 29.81 in 5.0 mi ESE 11.5 mph - N/A   Haze
8:52 PM 66.9 °F 63.0 °F 87% 29.80 in 6.0 mi ESE 8.1 mph - N/A   Mostly Cloudy
9:10 PM 66.2 °F 62.6 °F 88% 29.81 in 5.0 mi ESE 9.2 mph - N/A   Overcast
9:52 PM 66.9 °F 64.0 °F 90% 29.82 in 4.0 mi SE 8.1 mph - 0.02 in Rain Light Rain
10:17 PM 66.2 °F 64.4 °F 94% 29.82 in 4.0 mi ESE 8.1 mph - 0.00 in   Overcast
10:52 PM 66.0 °F 64.0 °F 93% 29.82 in 2.5 mi East 5.8 mph - 0.00 in Rain Light Rain
11:04 PM 66.2 °F 64.4 °F 94% 29.81 in 3.0 mi ESE 8.1 mph - 0.01 in Rain Light Rain
11:17 PM 66.2 °F 64.4 °F 94% 29.81 in 2.5 mi East 5.8 mph - 0.01 in   Overcast
11:52 PM 64.9 °F 64.0 °F 97% 29.81 in 3.0 mi ESE 5.8 mph - 0.01 in   Overcast